Location: Newark
(35.8967°N, 14.4625°E)
Time: 05:59:54
(UTC+00:00)

N. Korean satellite - Pass Details

Date: 16 November 2019
Orbit: 455 x 506 km, 97.2° (Epoch: 10 December)

Event Time Altitude Azimuth Distance (km) Brightness Sun altitude
Rises 16:24:15 0° 177° (S) 2,528 10.4 -6.5°
Reaches altitude 10° 16:26:19 10° 182° (S) 1,662 9.5 -6.9°
Maximum altitude 16:29:50 55° 260° (W) 598 7.5 -7.6°
Drops below altitude 10° 16:33:26 10° 339° (NNW) 1,702 9.4 -8.3°
Sets 16:35:34 0° 344° (NNW) 2,596 10.3 -8.7°
